Location: Bruderhein
(53.8035°N, 112.9265°W)
Time: 14:25:49
(UTC+00:00)

deb Delta 139 - Pass Details

Date: 05 December 2023
Orbit: 731 x 794 km, 98.6° (Epoch: 01 March)

Event Time Altitude Azimuth Distance (km) Brightness Sun altitude
Rises 00:20:24 0° 135° (SE) 3,260 ? -9.3°
Reaches altitude 10° 00:22:52 10° 127° (SE) 2,327 ? -9.6°
Maximum altitude 00:27:31 36° 62° (ENE) 1,200 ? -10.2°
Drops below altitude 10° 00:32:08 10° 357° (N) 2,303 ? -10.9°
Sets 00:34:34 0° 349° (N) 3,222 ? -11.2°
